Date,TemperatureHighF,TemperatureAvgF,TemperatureLowF,DewpointHighF,DewpointAvgF,DewpointLowF,HumidityHigh,HumidityAvg,HumidityLow,PressureMaxIn,PressureMinIn,WindSpeedMaxMPH,WindSpeedAvgMPH,GustSpeedMaxMPH,PrecipitationSumIn
2013-11-1,69.5,64.1,58.4,64.2,59.7,56.4,94,86,66,29.79,29.56,8,2,15,0.23
2013-11-2,66.6,58.5,51.6,58.1,47.9,41.3,95,69,49,29.81,29.63,6,1,13,0.00
2013-11-3,51.5,45.2,33.8,42.5,33.9,22.1,85,66,44,30.46,29.81,9,4,17,0.00
2013-11-4,45.1,36.1,29.0,23.5,21.3,17.9,76,57,34,30.64,30.46,10,3,17,0.00
2013-11-8,47.9,43.3,38.7,34.0,30.5,28.4,73,61,49,30.28,30.07,8,3,16,0.00
2013-11-9,51.3,43.4,37.8,37.7,30.9,27.0,81,62,46,30.33,30.00,4,1,11,0.00
2013-11-10,58.4,48.7,41.5,39.5,33.6,28.9,81,57,43,30.13,29.90,11,4,23,0.00
2013-11-11,55.5,47.5,39.8,39.5,33.7,29.8,69,59,44,30.25,29.99,6,3,13,0.00
2013-11-12,49.2,37.6,29.1,40.0,25.4,16.6,84,62,48,30.34,29.96,12,4,21,0.00
2013-11-13,39.1,32.1,26.8,22.5,18.5,14.9,71,57,43,30.43,30.33,9,3,20,0.00
2013-11-14,55.8,41.2,29.6,30.5,21.3,13.9,71,49,21,30.33,30.21,7,3,14,0.00
2013-11-15,59.3,46.4,36.4,35.3,32.4,25.3,83,60,28,30.27,30.17,3,1,10,0.00
2013-11-16,57.7,49.3,42.6,48.5,43.9,33.7,91,82,59,30.34,30.25,4,1,11,0.02
2013-11-17,66.3,57.8,50.3,59.0,53.8,47.6,93,87,74,30.25,29.75,7,2,15,0.00
2013-11-18,64.3,59.3,48.7,61.0,41.3,29.0,95,55,30,29.85,29.64,9,4,19,0.12
2013-11-19,48.6,42.4,34.9,31.5,27.2,23.5,64,55,46,30.36,29.85,9,5,18,0.00
2013-11-20,44.6,36.7,29.9,24.1,19.0,10.7,75,51,26,30.60,30.36,7,3,14,0.00
2013-11-21,51.4,42.0,28.3,42.6,31.1,16.3,79,65,46,30.60,30.40,4,1,8,0.00
2013-11-22,57.0,39.1,48.1,51.6,11.3,-99.9,92,65,79,30.40,29.96,6,-248,13,0.01
2013-11-23,52.4,40.9,28.1,48.9,28.9,17.8,88,63,49,30.11,29.97,10,5,20,0.00
2013-11-24,28.5,25.4,22.1,19.2,5.2,2.2,69,42,34,30.46,30.10,11,6,23,0.00
2013-11-25,34.8,27.5,21.2,20.2,14.7,9.5,72,59,46,30.55,30.35,4,2,11,0.00
2013-11-26,50.1,35.3,31.0,48.9,28.4,-99.9,96,78,61,30.35,29.64,8,-6,16,0.89
2013-11-27,61.1,41.8,30.3,60.0,38.7,20.3,96,89,61,29.86,29.43,11,5,22,1.49
2013-11-28,34.4,30.6,28.2,21.7,19.3,17.4,68,62,55,30.49,29.87,8,4,18,0.00
2013-11-29,38.4,31.4,26.0,24.6,21.0,17.1,79,66,51,30.74,30.48,6,2,12,0.00
2013-11-30,38.7,30.7,21.8,29.5,23.5,16.0,84,74,67,30.74,30.38,5,2,11,0.00